Location: Frizzleburg
(41.0764°N, 80.4548°W)
Time: 18:16:01
(UTC+00:00)

Shenzhou-11 Module - Pass Details

Date: 17 November 2019
Orbit: 307 x 321 km, 42.8° (Epoch: 07 December)

Event Time Altitude Azimuth Distance (km) Brightness Sun altitude
Exits shadow 11:23:55 14° 273° (W) 1,007 3.6 -9.2°
Maximum altitude 11:26:00 44° 203° (SSW) 442 2.3 -8.8°
Drops below altitude 10° 11:28:35 10° 128° (SE) 1,196 5.9 -8.4°
Sets 11:30:36 0° 122° (ESE) 2,025 7.6 -8.0°
